Year,Month,Day,Hour,Minute,Value (Times are PST for temperature in C)
2009,07,25,00,00,10.30
2009,07,25,00,01,10.40
2009,07,25,00,02,10.40
2009,07,25,00,03,10.40
2009,07,25,00,04,10.40
2009,07,25,00,05,10.40
2009,07,25,00,06,10.40
2009,07,25,00,07,10.40
2009,07,25,00,08,10.40
2009,07,25,00,09,10.40
2009,07,25,00,10,10.40
2009,07,25,00,11,10.40
2009,07,25,00,12,10.40
2009,07,25,00,13,10.40
2009,07,25,00,14,10.40
2009,07,25,00,15,10.40
2009,07,25,00,16,10.40
2009,07,25,00,17,10.40
2009,07,25,00,18,10.40
2009,07,25,00,19,10.40
2009,07,25,00,20,10.40
2009,07,25,00,21,10.40
2009,07,25,00,22,10.40
2009,07,25,00,23,10.40
2009,07,25,00,24,10.40
2009,07,25,00,25,10.30
2009,07,25,00,26,10.30
2009,07,25,00,27,10.30
2009,07,25,00,28,10.30
2009,07,25,00,29,10.30
2009,07,25,00,30,10.30
2009,07,25,00,31,10.30
2009,07,25,00,32,10.30
2009,07,25,00,33,10.30
2009,07,25,00,34,10.30
2009,07,25,00,35,10.30
2009,07,25,00,36,10.30
2009,07,25,00,37,10.30
2009,07,25,00,38,10.20
2009,07,25,00,39,10.20
2009,07,25,00,40,10.20
2009,07,25,00,41,10.20
2009,07,25,00,42,10.20
2009,07,25,00,43,10.20
2009,07,25,00,44,10.20
2009,07,25,00,45,10.20
2009,07,25,00,46,10.20
2009,07,25,00,47,10.20
2009,07,25,00,48,10.20
2009,07,25,00,49,10.20
2009,07,25,00,50,10.10
2009,07,25,00,51,10.10
2009,07,25,00,52,10.10
2009,07,25,00,53,10.10
2009,07,25,00,54,10.10
2009,07,25,00,55,10.10
2009,07,25,00,56,10.10
2009,07,25,00,57,10.10
2009,07,25,00,58,10.10
2009,07,25,00,59,10.10
2009,07,25,01,00,10.10
2009,07,25,01,01,10.10
2009,07,25,01,02,10.10
2009,07,25,01,03,10.10
2009,07,25,01,04,10.10
2009,07,25,01,05,10.10
2009,07,25,01,06,10.10
2009,07,25,01,07,10.10
2009,07,25,01,08,10.10
2009,07,25,01,09,10.10
2009,07,25,01,10,9.90
2009,07,25,01,11,9.90
2009,07,25,01,12,9.90
2009,07,25,01,13,10.00
2009,07,25,01,14,10.10
2009,07,25,01,15,10.10
2009,07,25,01,16,10.10
2009,07,25,01,17,10.10
2009,07,25,01,18,10.10
2009,07,25,01,19,10.10
2009,07,25,01,20,10.00
2009,07,25,01,21,9.90
2009,07,25,01,22,9.90
2009,07,25,01,23,9.90
2009,07,25,01,24,9.90
2009,07,25,01,25,9.90
2009,07,25,01,26,9.90
2009,07,25,01,27,9.90
2009,07,25,01,28,9.90
2009,07,25,01,29,9.90
2009,07,25,01,30,9.90
2009,07,25,01,31,9.90
2009,07,25,01,32,9.90
2009,07,25,01,33,9.90
2009,07,25,01,34,9.90
2009,07,25,01,35,9.90
2009,07,25,01,36,9.90
2009,07,25,01,37,9.90
2009,07,25,01,38,9.90
2009,07,25,01,39,9.90
2009,07,25,01,40,9.90
2009,07,25,01,41,9.90
2009,07,25,01,42,9.90
2009,07,25,01,43,9.90
2009,07,25,01,44,9.90
2009,07,25,01,45,9.90
2009,07,25,01,46,9.90
2009,07,25,01,47,9.90
2009,07,25,01,48,9.90
2009,07,25,01,49,9.90
2009,07,25,01,50,9.90
2009,07,25,01,51,9.90
2009,07,25,01,52,9.90
2009,07,25,01,53,9.90
2009,07,25,01,54,9.90
2009,07,25,01,55,9.90
2009,07,25,01,56,9.90
2009,07,25,01,57,9.90
2009,07,25,01,58,9.90
2009,07,25,01,59,9.90
2009,07,25,02,00,9.90
2009,07,25,02,01,9.90
2009,07,25,02,02,9.90
2009,07,25,02,03,9.90
2009,07,25,02,04,9.90
2009,07,25,02,05,9.90
2009,07,25,02,06,9.90
2009,07,25,02,07,9.90
2009,07,25,02,08,9.80
2009,07,25,02,09,9.80
2009,07,25,02,10,9.80
2009,07,25,02,11,9.80
2009,07,25,02,12,9.80
2009,07,25,02,13,9.80
2009,07,25,02,14,9.80
2009,07,25,02,15,9.80
2009,07,25,02,16,9.80
2009,07,25,02,17,9.80
2009,07,25,02,18,9.80
2009,07,25,02,19,9.80
2009,07,25,02,20,9.80
2009,07,25,02,21,9.80
2009,07,25,02,22,9.80
2009,07,25,02,23,9.80
2009,07,25,02,24,9.80
2009,07,25,02,25,9.80
2009,07,25,02,26,9.80
2009,07,25,02,27,9.80
2009,07,25,02,28,9.80
2009,07,25,02,29,9.80
2009,07,25,02,30,9.80
2009,07,25,02,31,9.80
2009,07,25,02,32,9.80
2009,07,25,02,33,9.80
2009,07,25,02,34,9.80
2009,07,25,02,35,9.80
2009,07,25,02,36,9.80
2009,07,25,02,37,9.80
2009,07,25,02,38,9.80
2009,07,25,02,39,9.80
2009,07,25,02,40,9.80
2009,07,25,02,41,9.70
2009,07,25,02,42,9.70
2009,07,25,02,43,9.80
2009,07,25,02,44,9.80
2009,07,25,02,45,9.80
2009,07,25,02,46,9.80
2009,07,25,02,47,9.80
2009,07,25,02,48,9.80
2009,07,25,02,49,9.80
2009,07,25,02,50,9.80
2009,07,25,02,51,9.80
2009,07,25,02,52,9.80
2009,07,25,02,53,9.80
2009,07,25,02,54,9.80
2009,07,25,02,55,9.70
2009,07,25,02,56,9.70
2009,07,25,02,57,9.70
2009,07,25,02,58,9.70
2009,07,25,02,59,9.70
2009,07,25,03,00,9.70
2009,07,25,03,01,9.70
2009,07,25,03,02,9.70
2009,07,25,03,03,9.60
2009,07,25,03,04,9.60
2009,07,25,03,05,9.60
2009,07,25,03,06,9.60
2009,07,25,03,07,9.60
2009,07,25,03,08,9.60
2009,07,25,03,09,9.50
2009,07,25,03,10,9.50
2009,07,25,03,11,9.50
2009,07,25,03,12,9.50
2009,07,25,03,13,9.50
2009,07,25,03,14,9.40
2009,07,25,03,15,9.40
2009,07,25,03,16,9.40
2009,07,25,03,17,9.40
2009,07,25,03,18,9.40
2009,07,25,03,19,9.40
2009,07,25,03,20,9.40
2009,07,25,03,21,9.30
2009,07,25,03,22,9.30
2009,07,25,03,23,9.30
2009,07,25,03,24,9.30
2009,07,25,03,25,9.30
2009,07,25,03,26,9.30
2009,07,25,03,27,9.30
2009,07,25,03,28,9.30
2009,07,25,03,29,9.30
2009,07,25,03,30,9.30
2009,07,25,03,31,9.30
2009,07,25,03,32,9.30
2009,07,25,03,33,9.30
2009,07,25,03,34,9.20
2009,07,25,03,35,9.20
2009,07,25,03,36,9.20
2009,07,25,03,37,9.20
2009,07,25,03,38,9.20
2009,07,25,03,39,9.20
2009,07,25,03,40,9.20
2009,07,25,03,41,9.20
2009,07,25,03,42,9.20
2009,07,25,03,43,9.20
2009,07,25,03,44,9.20
2009,07,25,03,45,9.20
2009,07,25,03,46,9.20
2009,07,25,03,47,9.20
2009,07,25,03,48,9.20
2009,07,25,03,49,9.20
2009,07,25,03,50,9.20
2009,07,25,03,51,9.20
2009,07,25,03,52,9.20
2009,07,25,03,53,9.20
2009,07,25,03,54,9.20
2009,07,25,03,55,9.20
2009,07,25,03,56,9.20
2009,07,25,03,57,9.20
2009,07,25,03,58,9.20
2009,07,25,03,59,9.20
2009,07,25,04,00,9.20
2009,07,25,04,01,9.20
2009,07,25,04,02,9.20
2009,07,25,04,03,9.20
2009,07,25,04,04,9.20
2009,07,25,04,05,9.20
2009,07,25,04,06,9.20
2009,07,25,04,07,9.20
2009,07,25,04,08,9.20
2009,07,25,04,09,9.20
2009,07,25,04,10,9.20
2009,07,25,04,11,9.20
2009,07,25,04,12,9.20
2009,07,25,04,13,9.20
2009,07,25,04,14,9.20
2009,07,25,04,15,9.20
2009,07,25,04,16,9.20
2009,07,25,04,17,9.20
2009,07,25,04,18,9.20
2009,07,25,04,19,9.20
2009,07,25,04,20,9.20
2009,07,25,04,21,9.20
2009,07,25,04,22,9.20
2009,07,25,04,23,9.20
2009,07,25,04,24,9.20
2009,07,25,04,25,9.20
2009,07,25,04,26,9.20
2009,07,25,04,27,9.20
2009,07,25,04,28,9.20
2009,07,25,04,29,9.20
2009,07,25,04,30,9.20
2009,07,25,04,31,9.20
2009,07,25,04,32,9.20
2009,07,25,04,33,9.20
2009,07,25,04,34,9.20
2009,07,25,04,35,9.30
2009,07,25,04,36,9.30
2009,07,25,04,37,9.30
2009,07,25,04,38,9.30
2009,07,25,04,39,9.30
2009,07,25,04,40,9.30
2009,07,25,04,41,9.30
2009,07,25,04,42,9.30
2009,07,25,04,43,9.30
2009,07,25,04,44,9.40
2009,07,25,04,45,9.40
2009,07,25,04,46,9.50
2009,07,25,04,47,9.50
2009,07,25,04,48,9.50
2009,07,25,04,49,9.60
2009,07,25,04,50,9.60
2009,07,25,04,51,9.70
2009,07,25,04,52,9.70
2009,07,25,04,53,9.70
2009,07,25,04,54,9.70
2009,07,25,04,55,9.70
2009,07,25,04,56,9.80
2009,07,25,04,57,9.70
2009,07,25,04,58,9.70
2009,07,25,04,59,9.70
2009,07,25,05,00,9.70
2009,07,25,05,01,9.70
2009,07,25,05,02,9.80
2009,07,25,05,03,9.90
2009,07,25,05,04,9.90
2009,07,25,05,05,9.90
2009,07,25,05,06,9.90
2009,07,25,05,07,9.90
2009,07,25,05,08,9.90
2009,07,25,05,09,9.90
2009,07,25,05,10,9.90
2009,07,25,05,11,9.90
2009,07,25,05,12,10.00
2009,07,25,05,13,10.10
2009,07,25,05,14,10.10
2009,07,25,05,15,10.10
2009,07,25,05,16,10.10
2009,07,25,05,17,10.20
2009,07,25,05,18,10.20
2009,07,25,05,19,10.20
2009,07,25,05,20,10.30
2009,07,25,05,21,10.40
2009,07,25,05,22,10.40
2009,07,25,05,23,10.40
2009,07,25,05,24,10.40
2009,07,25,05,25,10.50
2009,07,25,05,26,10.60
2009,07,25,05,27,10.60
2009,07,25,05,28,10.60
2009,07,25,05,29,10.60
2009,07,25,05,30,10.60
2009,07,25,05,31,10.60
2009,07,25,05,32,10.60
2009,07,25,05,33,10.60
2009,07,25,05,34,10.70
2009,07,25,05,35,10.70
2009,07,25,05,36,10.70
2009,07,25,05,37,10.70
2009,07,25,05,38,10.80
2009,07,25,05,39,10.80
2009,07,25,05,40,10.80
2009,07,25,05,41,10.80
2009,07,25,05,42,10.80
2009,07,25,05,43,10.80
2009,07,25,05,44,10.70
2009,07,25,05,45,10.70
2009,07,25,05,46,10.60
2009,07,25,05,47,10.60
2009,07,25,05,48,10.60
2009,07,25,05,49,10.50
2009,07,25,05,50,10.40
2009,07,25,05,51,10.40
2009,07,25,05,52,10.40
2009,07,25,05,53,10.30
2009,07,25,05,54,10.30
2009,07,25,05,55,10.30
2009,07,25,05,56,10.30
2009,07,25,05,57,10.30
2009,07,25,05,58,10.30
2009,07,25,05,59,10.30
2009,07,25,06,00,10.30
2009,07,25,06,01,10.30
2009,07,25,06,02,10.40
2009,07,25,06,03,10.40
2009,07,25,06,04,10.40
2009,07,25,06,05,10.40
2009,07,25,06,06,10.40
2009,07,25,06,07,10.40
2009,07,25,06,08,10.40
2009,07,25,06,09,10.50
2009,07,25,06,10,10.60
2009,07,25,06,11,10.60
2009,07,25,06,12,10.60
2009,07,25,06,13,10.60
2009,07,25,06,14,10.60
2009,07,25,06,15,10.60
2009,07,25,06,16,10.60
2009,07,25,06,17,10.60
2009,07,25,06,18,10.60
2009,07,25,06,19,10.60
2009,07,25,06,20,10.60
2009,07,25,06,21,10.60
2009,07,25,06,22,10.60
2009,07,25,06,23,10.70
2009,07,25,06,24,10.70
2009,07,25,06,25,10.70
2009,07,25,06,26,10.70
2009,07,25,06,27,10.80
2009,07,25,06,28,10.80
2009,07,25,06,29,10.90
2009,07,25,06,30,10.90
2009,07,25,06,31,10.90
2009,07,25,06,32,10.90
2009,07,25,06,33,10.90
2009,07,25,06,34,10.90
2009,07,25,06,35,10.90
2009,07,25,06,36,10.90
2009,07,25,06,37,10.90
2009,07,25,06,38,10.90
2009,07,25,06,39,10.90
2009,07,25,06,40,10.90
2009,07,25,06,41,10.90
2009,07,25,06,42,10.90
2009,07,25,06,43,10.90
2009,07,25,06,44,11.00
2009,07,25,06,45,11.10
2009,07,25,06,46,11.10
2009,07,25,06,47,11.10
2009,07,25,06,48,11.10
2009,07,25,06,49,11.10
2009,07,25,06,50,11.10
2009,07,25,06,51,11.10
2009,07,25,06,52,11.10
2009,07,25,06,53,11.10
2009,07,25,06,54,11.20
2009,07,25,06,55,11.20
2009,07,25,06,56,11.20
2009,07,25,06,57,11.20
2009,07,25,06,58,11.30
2009,07,25,06,59,11.30
2009,07,25,07,00,11.30
2009,07,25,07,01,11.40
2009,07,25,07,02,11.40
2009,07,25,07,03,11.40
2009,07,25,07,04,11.40
2009,07,25,07,05,11.40
2009,07,25,07,06,11.40
2009,07,25,07,07,11.60
2009,07,25,07,08,11.60
2009,07,25,07,09,11.60
2009,07,25,07,10,11.60
2009,07,25,07,11,11.70
2009,07,25,07,12,11.80
2009,07,25,07,13,11.80
2009,07,25,07,14,11.80
2009,07,25,07,15,11.90
2009,07,25,07,16,11.90
2009,07,25,07,17,12.00
2009,07,25,07,18,12.10
2009,07,25,07,19,12.20
2009,07,25,07,20,12.30
2009,07,25,07,21,12.40
2009,07,25,07,22,12.50
2009,07,25,07,23,12.60
2009,07,25,07,24,12.60
2009,07,25,07,25,12.70
2009,07,25,07,26,12.70
2009,07,25,07,27,12.80
2009,07,25,07,28,12.80
2009,07,25,07,29,12.80
2009,07,25,07,30,12.90
2009,07,25,07,31,12.90
2009,07,25,07,32,13.00
2009,07,25,07,33,13.10
2009,07,25,07,34,13.10
2009,07,25,07,35,13.20
2009,07,25,07,36,13.30
2009,07,25,07,37,13.40
2009,07,25,07,38,13.50
2009,07,25,07,39,13.50
2009,07,25,07,40,13.70
2009,07,25,07,41,13.80
2009,07,25,07,42,13.90
2009,07,25,07,43,14.00
2009,07,25,07,44,14.10
2009,07,25,07,45,14.20
2009,07,25,07,46,14.20
2009,07,25,07,47,14.30
2009,07,25,07,48,14.40
2009,07,25,07,49,14.40
2009,07,25,07,50,14.50
2009,07,25,07,51,14.50
2009,07,25,07,52,14.60
2009,07,25,07,53,14.80
2009,07,25,07,54,14.90
2009,07,25,07,55,15.00
2009,07,25,07,56,15.10
2009,07,25,07,57,15.20
2009,07,25,07,58,15.30
2009,07,25,07,59,15.50
2009,07,25,08,00,15.60
2009,07,25,08,01,15.70
2009,07,25,08,02,15.80
2009,07,25,08,03,15.80
2009,07,25,08,04,15.80
2009,07,25,08,05,15.90
2009,07,25,08,06,16.00
2009,07,25,08,07,16.10
2009,07,25,08,08,16.10
2009,07,25,08,09,16.10
2009,07,25,08,10,16.10
2009,07,25,08,11,16.10
2009,07,25,08,12,16.00
2009,07,25,08,13,15.90
2009,07,25,08,14,15.80
2009,07,25,08,15,15.90
2009,07,25,08,16,15.90
2009,07,25,08,17,15.90
2009,07,25,08,18,15.80
2009,07,25,08,19,15.80
2009,07,25,08,20,15.80
2009,07,25,08,21,15.70
2009,07,25,08,22,15.70
2009,07,25,08,23,15.80
2009,07,25,08,24,15.80
2009,07,25,08,25,15.80
2009,07,25,08,26,15.80
2009,07,25,08,27,15.80
2009,07,25,08,28,15.90
2009,07,25,08,29,15.90
2009,07,25,08,30,16.10
2009,07,25,08,31,16.10
2009,07,25,08,32,16.10
2009,07,25,08,33,16.10
2009,07,25,08,34,16.20
2009,07,25,08,35,16.20
2009,07,25,08,36,16.30
2009,07,25,08,37,16.30
2009,07,25,08,38,16.40
2009,07,25,08,39,16.40
2009,07,25,08,40,16.40
2009,07,25,08,41,16.40
2009,07,25,08,42,16.30
2009,07,25,08,43,16.30
2009,07,25,08,44,16.10
2009,07,25,08,45,16.10
2009,07,25,08,46,15.90
2009,07,25,08,47,15.80
2009,07,25,08,48,15.70
2009,07,25,08,49,15.60
2009,07,25,08,50,15.50
2009,07,25,08,51,15.50
2009,07,25,08,52,15.30
2009,07,25,08,53,15.30
2009,07,25,08,54,15.20
2009,07,25,08,55,15.10
2009,07,25,08,56,15.00
2009,07,25,08,57,15.00
2009,07,25,08,58,14.90
2009,07,25,08,59,14.90
2009,07,25,09,00,14.80
2009,07,25,09,01,14.80
2009,07,25,09,02,14.80
2009,07,25,09,03,14.80
2009,07,25,09,04,14.70
2009,07,25,09,05,14.60
2009,07,25,09,06,14.60
2009,07,25,09,07,14.50
2009,07,25,09,08,14.30
2009,07,25,09,09,14.20
2009,07,25,09,10,14.10
2009,07,25,09,11,13.90
2009,07,25,09,12,13.80
2009,07,25,09,13,13.70
2009,07,25,09,14,13.70
2009,07,25,09,15,13.60
2009,07,25,09,16,13.60
2009,07,25,09,17,13.70
2009,07,25,09,18,13.60
2009,07,25,09,19,13.60
2009,07,25,09,20,13.50
2009,07,25,09,21,13.50
2009,07,25,09,22,13.50
2009,07,25,09,23,13.50
2009,07,25,09,24,13.60
2009,07,25,09,25,13.60
2009,07,25,09,26,13.60
2009,07,25,09,27,13.60
2009,07,25,09,28,13.60
2009,07,25,09,29,13.60
2009,07,25,09,30,13.60
2009,07,25,09,31,13.60
2009,07,25,09,32,13.60
2009,07,25,09,33,13.50
2009,07,25,09,34,13.50
2009,07,25,09,35,13.50
2009,07,25,09,36,13.50
2009,07,25,09,37,13.50
2009,07,25,09,38,13.50
2009,07,25,09,39,13.50
2009,07,25,09,40,13.50
2009,07,25,09,41,13.50
2009,07,25,09,42,13.60
2009,07,25,09,43,13.70
2009,07,25,09,44,13.80
2009,07,25,09,45,13.90
2009,07,25,09,46,14.00
2009,07,25,09,47,14.20
2009,07,25,09,48,14.30
2009,07,25,09,49,14.50
2009,07,25,09,50,14.60
2009,07,25,09,51,14.60
2009,07,25,09,52,14.70
2009,07,25,09,53,14.80
2009,07,25,09,54,14.80
2009,07,25,09,55,14.90
2009,07,25,09,56,14.90
2009,07,25,09,57,15.00
2009,07,25,09,58,15.00
2009,07,25,09,59,15.10
2009,07,25,10,00,15.10
2009,07,25,10,01,15.20
2009,07,25,10,02,15.30
2009,07,25,10,03,15.20
2009,07,25,10,04,15.20
2009,07,25,10,05,15.30
2009,07,25,10,06,15.30
2009,07,25,10,07,15.40
2009,07,25,10,08,15.50
2009,07,25,10,09,15.60
2009,07,25,10,10,15.80
2009,07,25,10,11,15.90
2009,07,25,10,12,16.00
2009,07,25,10,13,16.10
2009,07,25,10,14,16.10
2009,07,25,10,15,16.10
2009,07,25,10,16,16.10
2009,07,25,10,17,16.10
2009,07,25,10,18,16.10
2009,07,25,10,19,16.00
2009,07,25,10,20,15.90
2009,07,25,10,21,15.90
2009,07,25,10,22,15.90
2009,07,25,10,23,16.00
2009,07,25,10,24,16.10
2009,07,25,10,25,16.10
2009,07,25,10,26,16.10
2009,07,25,10,27,16.20
2009,07,25,10,28,16.30
2009,07,25,10,29,16.30
2009,07,25,10,30,16.40
2009,07,25,10,31,16.30
2009,07,25,10,32,16.40
2009,07,25,10,33,16.40
2009,07,25,10,34,16.40
2009,07,25,10,35,16.50
2009,07,25,10,36,16.60
2009,07,25,10,37,16.60
2009,07,25,10,38,16.60
2009,07,25,10,39,16.70
2009,07,25,10,40,16.70
2009,07,25,10,41,16.70
2009,07,25,10,42,16.80
2009,07,25,10,43,16.80
2009,07,25,10,44,16.90
2009,07,25,10,45,17.00
2009,07,25,10,46,17.00
2009,07,25,10,47,16.90
2009,07,25,10,48,16.90
2009,07,25,10,49,16.80
2009,07,25,10,50,16.80
2009,07,25,10,51,16.80
2009,07,25,10,52,16.70
2009,07,25,10,53,16.70
2009,07,25,10,54,16.70
2009,07,25,10,55,16.70
2009,07,25,10,56,16.60
2009,07,25,10,57,16.50
2009,07,25,10,58,16.40
2009,07,25,10,59,16.40
2009,07,25,11,00,16.40
2009,07,25,11,01,16.40
2009,07,25,11,02,16.40
2009,07,25,11,03,16.40
2009,07,25,11,04,16.40
2009,07,25,11,05,16.40
2009,07,25,11,06,16.30
2009,07,25,11,07,16.20
2009,07,25,11,08,16.20
2009,07,25,11,09,16.10
2009,07,25,11,10,16.10
2009,07,25,11,11,16.10
2009,07,25,11,12,16.10
2009,07,25,11,13,16.10
2009,07,25,11,14,16.10
2009,07,25,11,15,16.10
2009,07,25,11,16,16.10
2009,07,25,11,17,16.10
2009,07,25,11,18,16.10
2009,07,25,11,19,16.10
2009,07,25,11,20,16.10
2009,07,25,11,21,16.10
2009,07,25,11,22,16.10
2009,07,25,11,23,16.10
2009,07,25,11,24,16.10
2009,07,25,11,25,16.20
2009,07,25,11,26,16.20
2009,07,25,11,27,16.20
2009,07,25,11,28,16.20
2009,07,25,11,29,16.20
2009,07,25,11,30,16.20
2009,07,25,11,31,16.20
2009,07,25,11,32,16.20
2009,07,25,11,33,16.10
2009,07,25,11,34,16.10
2009,07,25,11,35,16.10
2009,07,25,11,36,16.20
2009,07,25,11,37,16.20
2009,07,25,11,38,16.30
2009,07,25,11,39,16.30
2009,07,25,11,40,16.40
2009,07,25,11,41,16.40
2009,07,25,11,42,16.40
2009,07,25,11,43,16.40
2009,07,25,11,44,16.50
2009,07,25,11,45,16.60
2009,07,25,11,46,16.60
2009,07,25,11,47,16.70
2009,07,25,11,48,16.80
2009,07,25,11,49,16.90
2009,07,25,11,50,17.00
2009,07,25,11,51,17.20
2009,07,25,11,52,17.30
2009,07,25,11,53,17.40
2009,07,25,11,54,17.50
2009,07,25,11,55,17.60
2009,07,25,11,56,17.60
2009,07,25,11,57,17.70
2009,07,25,11,58,17.80
2009,07,25,11,59,17.80
2009,07,25,12,00,17.90
2009,07,25,12,01,17.90
2009,07,25,12,02,17.90
2009,07,25,12,03,18.10
2009,07,25,12,04,18.20
2009,07,25,12,05,18.40
2009,07,25,12,06,18.60
2009,07,25,12,07,18.80
2009,07,25,12,08,18.90
2009,07,25,12,09,18.90
2009,07,25,12,10,18.90
2009,07,25,12,11,18.90
2009,07,25,12,12,19.00
2009,07,25,12,13,19.10
2009,07,25,12,14,19.10
2009,07,25,12,15,19.10
2009,07,25,12,16,19.10
2009,07,25,12,17,19.10
2009,07,25,12,18,19.10
2009,07,25,12,19,19.10
2009,07,25,12,20,19.00
2009,07,25,12,21,18.90
2009,07,25,12,22,18.90
2009,07,25,12,23,18.90
2009,07,25,12,24,18.90
2009,07,25,12,25,18.80
2009,07,25,12,26,18.60
2009,07,25,12,27,18.50
2009,07,25,12,28,18.30
2009,07,25,12,29,18.30
2009,07,25,12,30,18.30
2009,07,25,12,31,18.30
2009,07,25,12,32,18.40
2009,07,25,12,33,18.50
2009,07,25,12,34,18.50
2009,07,25,12,35,18.50
2009,07,25,12,36,18.50
2009,07,25,12,37,18.50
2009,07,25,12,38,18.50
2009,07,25,12,39,18.50
2009,07,25,12,40,18.60
2009,07,25,12,41,18.60
2009,07,25,12,42,18.60
2009,07,25,12,43,18.50
2009,07,25,12,44,18.50
2009,07,25,12,45,18.50
2009,07,25,12,46,18.40
2009,07,25,12,47,18.30
2009,07,25,12,48,18.20
2009,07,25,12,49,18.20
2009,07,25,12,50,18.20
2009,07,25,12,51,18.20
2009,07,25,12,52,18.20
2009,07,25,12,53,18.20
2009,07,25,12,54,18.10
2009,07,25,12,55,18.10
2009,07,25,12,56,18.20
2009,07,25,12,57,18.20
2009,07,25,12,58,18.20
2009,07,25,12,59,18.20
2009,07,25,13,00,18.20
2009,07,25,13,01,18.10
2009,07,25,13,02,18.10
2009,07,25,13,03,18.10
2009,07,25,13,04,17.90
2009,07,25,13,05,17.90
2009,07,25,13,06,17.90
2009,07,25,13,07,17.90
2009,07,25,13,08,18.00
2009,07,25,13,09,18.10
2009,07,25,13,10,18.30
2009,07,25,13,11,18.40
2009,07,25,13,12,18.40
2009,07,25,13,13,18.50
2009,07,25,13,14,18.50
2009,07,25,13,15,18.60
2009,07,25,13,16,18.70
2009,07,25,13,17,18.70
2009,07,25,13,18,18.60
2009,07,25,13,19,18.60
2009,07,25,13,20,18.50
2009,07,25,13,21,18.60
2009,07,25,13,22,18.60
2009,07,25,13,23,18.60
2009,07,25,13,24,18.70
2009,07,25,13,25,18.80
2009,07,25,13,26,18.80
2009,07,25,13,27,19.00
2009,07,25,13,28,19.10
2009,07,25,13,29,19.20
2009,07,25,13,30,19.30
2009,07,25,13,31,19.30
2009,07,25,13,32,19.40
2009,07,25,13,33,19.50
2009,07,25,13,34,19.60
2009,07,25,13,35,19.70
2009,07,25,13,36,19.80
2009,07,25,13,37,19.80
2009,07,25,13,38,19.70
2009,07,25,13,39,19.60
2009,07,25,13,40,19.70
2009,07,25,13,41,19.70
2009,07,25,13,42,19.80
2009,07,25,13,43,19.80
2009,07,25,13,44,19.60
2009,07,25,13,45,19.50
2009,07,25,13,46,19.50
2009,07,25,13,47,19.40
2009,07,25,13,48,19.30
2009,07,25,13,49,19.30
2009,07,25,13,50,19.20
2009,07,25,13,51,19.30
2009,07,25,13,52,19.30
2009,07,25,13,53,19.30
2009,07,25,13,54,19.30
2009,07,25,13,55,19.30
2009,07,25,13,56,19.30
2009,07,25,13,57,19.40
2009,07,25,13,58,19.50
2009,07,25,13,59,19.50
2009,07,25,14,00,19.50
2009,07,25,14,01,19.50
2009,07,25,14,02,19.50
2009,07,25,14,03,19.60
2009,07,25,14,04,19.50
2009,07,25,14,05,19.50
2009,07,25,14,06,19.50
2009,07,25,14,07,19.40
2009,07,25,14,08,19.40
2009,07,25,14,09,19.40
2009,07,25,14,10,19.40
2009,07,25,14,11,19.50
2009,07,25,14,12,19.40
2009,07,25,14,13,19.40
2009,07,25,14,14,19.50
2009,07,25,14,15,19.50
2009,07,25,14,16,19.60
2009,07,25,14,17,19.60
2009,07,25,14,18,19.70
2009,07,25,14,19,19.70
2009,07,25,14,20,19.70
2009,07,25,14,21,19.70
2009,07,25,14,22,19.60
2009,07,25,14,23,19.50
2009,07,25,14,24,19.50
2009,07,25,14,25,19.40
2009,07,25,14,26,19.40
2009,07,25,14,27,19.40
2009,07,25,14,28,19.50
2009,07,25,14,29,19.40
2009,07,25,14,30,19.40
2009,07,25,14,31,19.40
2009,07,25,14,32,19.50
2009,07,25,14,33,19.50
2009,07,25,14,34,19.40
2009,07,25,14,35,19.40
2009,07,25,14,36,19.30
2009,07,25,14,37,19.40
2009,07,25,14,38,19.30
2009,07,25,14,39,19.10
2009,07,25,14,40,19.10
2009,07,25,14,41,19.10
2009,07,25,14,42,19.10
2009,07,25,14,43,19.10
2009,07,25,14,44,19.10
2009,07,25,14,45,19.10
2009,07,25,14,46,19.10
2009,07,25,14,47,19.10
2009,07,25,14,48,19.10
2009,07,25,14,49,19.10
2009,07,25,14,50,19.10
2009,07,25,14,51,19.20
2009,07,25,14,52,19.20
2009,07,25,14,53,19.30
2009,07,25,14,54,19.30
2009,07,25,14,55,19.30
2009,07,25,14,56,19.40
2009,07,25,14,57,19.50
2009,07,25,14,58,19.60
2009,07,25,14,59,19.70
2009,07,25,15,00,19.80
2009,07,25,15,01,19.90
2009,07,25,15,02,19.90
2009,07,25,15,03,20.00
2009,07,25,15,04,20.20
2009,07,25,15,05,20.30
2009,07,25,15,06,20.40
2009,07,25,15,07,20.40
2009,07,25,15,08,20.40
2009,07,25,15,09,20.40
2009,07,25,15,10,20.40
2009,07,25,15,11,20.40
2009,07,25,15,12,20.50
2009,07,25,15,13,20.50
2009,07,25,15,14,20.60
2009,07,25,15,15,20.70
2009,07,25,15,16,20.80
2009,07,25,15,17,20.70
2009,07,25,15,18,20.70
2009,07,25,15,19,20.80
2009,07,25,15,20,20.80
2009,07,25,15,21,20.80
2009,07,25,15,22,20.90
2009,07,25,15,23,20.90
2009,07,25,15,24,21.00
2009,07,25,15,25,21.10
2009,07,25,15,26,21.00
2009,07,25,15,27,21.00
2009,07,25,15,28,21.10
2009,07,25,15,29,21.10
2009,07,25,15,30,21.20
2009,07,25,15,31,21.10
2009,07,25,15,32,21.10
2009,07,25,15,33,21.20
2009,07,25,15,34,21.20
2009,07,25,15,35,21.30
2009,07,25,15,36,21.10
2009,07,25,15,37,21.00
2009,07,25,15,38,20.90
2009,07,25,15,39,20.90
2009,07,25,15,40,20.90
2009,07,25,15,41,20.90
2009,07,25,15,42,20.90
2009,07,25,15,43,21.00
2009,07,25,15,44,21.00
2009,07,25,15,45,21.00
2009,07,25,15,46,21.00
2009,07,25,15,47,21.00
2009,07,25,15,48,21.00
2009,07,25,15,49,21.00
2009,07,25,15,50,21.00
2009,07,25,15,51,21.00
2009,07,25,15,52,20.90
2009,07,25,15,53,20.80
2009,07,25,15,54,20.60
2009,07,25,15,55,20.60
2009,07,25,15,56,20.60
2009,07,25,15,57,20.50
2009,07,25,15,58,20.50
2009,07,25,15,59,20.40
2009,07,25,16,00,20.30
2009,07,25,16,01,20.20
2009,07,25,16,02,20.20
2009,07,25,16,03,20.10
2009,07,25,16,04,19.90
2009,07,25,16,05,19.80
2009,07,25,16,06,19.50
2009,07,25,16,07,19.40
2009,07,25,16,08,19.20
2009,07,25,16,09,19.10
2009,07,25,16,10,19.10
2009,07,25,16,11,18.90
2009,07,25,16,12,18.80
2009,07,25,16,13,18.70
2009,07,25,16,14,18.70
2009,07,25,16,15,18.70
2009,07,25,16,16,18.80
2009,07,25,16,17,18.90
2009,07,25,16,18,19.00
2009,07,25,16,19,19.10
2009,07,25,16,20,19.10
2009,07,25,16,21,19.10
2009,07,25,16,22,19.10
2009,07,25,16,23,19.10
2009,07,25,16,24,19.10
2009,07,25,16,25,19.10
2009,07,25,16,26,19.20
2009,07,25,16,27,19.30
2009,07,25,16,28,19.40
2009,07,25,16,29,19.50
2009,07,25,16,30,19.60
2009,07,25,16,31,19.70
2009,07,25,16,32,19.80
2009,07,25,16,33,19.90
2009,07,25,16,34,20.00
2009,07,25,16,35,20.10
2009,07,25,16,36,20.20
2009,07,25,16,37,20.20
2009,07,25,16,38,20.20
2009,07,25,16,39,20.20
2009,07,25,16,40,20.20
2009,07,25,16,41,20.20
2009,07,25,16,42,20.10
2009,07,25,16,43,20.10
2009,07,25,16,44,20.00
2009,07,25,16,45,20.00
2009,07,25,16,46,20.00
2009,07,25,16,47,20.00
2009,07,25,16,48,20.10
2009,07,25,16,49,20.10
2009,07,25,16,50,20.00
2009,07,25,16,51,19.90
2009,07,25,16,52,19.90
2009,07,25,16,53,19.90
2009,07,25,16,54,19.90
2009,07,25,16,55,19.90
2009,07,25,16,56,20.00
2009,07,25,16,57,19.90
2009,07,25,16,58,20.00
2009,07,25,16,59,20.10
2009,07,25,17,00,20.20
2009,07,25,17,01,20.30
2009,07,25,17,02,20.50
2009,07,25,17,03,20.50
2009,07,25,17,04,20.60
2009,07,25,17,05,20.60
2009,07,25,17,06,20.60
2009,07,25,17,07,20.70
2009,07,25,17,08,20.70
2009,07,25,17,09,20.70
2009,07,25,17,10,20.80
2009,07,25,17,11,20.80
2009,07,25,17,12,20.70
2009,07,25,17,13,20.70
2009,07,25,17,14,20.70
2009,07,25,17,15,20.70
2009,07,25,17,16,20.70
2009,07,25,17,17,20.80
2009,07,25,17,18,20.80
2009,07,25,17,19,20.80
2009,07,25,17,20,20.80
2009,07,25,17,21,20.70
2009,07,25,17,22,20.70
2009,07,25,17,23,20.60
2009,07,25,17,24,20.60
2009,07,25,17,25,20.60
2009,07,25,17,26,20.70
2009,07,25,17,27,20.70
2009,07,25,17,28,20.60
2009,07,25,17,29,20.60